www.pogodaiklimat.ru

Погода и климат >> Архив погоды >> Беларусь >> Столбцы


ПОГОДА в Столбцах

  • Прогноз погоды в Столбцах
  • Монитор погоды в Столбцах
  • Климат города

АРХИВ ПОГОДЫ в Столбцах

Время (UTC), дата Ветер
(напр.,м/с)
 
Видим.   Явления Облачность Т
(С)
Тd
(С)
f
(%)
Тe
(С)
Тes
(С)
Комфортность P
(гПа)
Po
(гПа)
Тmin
(С)
Tmax
(С)
R
(мм)
R24
(мм)
S
(см)
06 16.10 Ю 1 9000 м дымка ясно +7.0 +3.2 77 +6 +6 1026.6 1005.3 +5.4
09 16.10 Ю 2 13 км ясно +14.5 +6.3 58 +14 +18 1026.0 1005.3
12 16.10 Ю 3 15 км ясно +19.4 +5.8 41 +20 +23 1024.7 1004.4
15 16.10 Ю 2 13 км ясно +16.9 +7.0 52 +17 +17 1024.3 1003.8
18 16.10 ЮВ 1 10 км ясно +12.0 +6.5 69 +12 +12 1025.1 1004.2 +19.6
06 17.10 ЮВ 2 6000 м дымка 3/0
[Ci fib]
+6.7 +4.9 88 +4 +5 1026.0 1004.7 +2.5
09 17.10 Ю 1 10 км ясно +14.1 +7.6 65 +15 +19 1025.7 1005.0
12 17.10 ЮЗ 1 15 км ясно +20.1 +7.1 43 +22 +25 комфорт 1024.5 1004.2
06 18.10 штиль 0 5000 м дымка 6/0
[Ci fib]
+6.6 +5.7 94 +6 +6 1023.1 1001.9 +4.7
09 18.10 Ю 1 10 км 4/0
[Ci fib]
+15.9 +9.8 67 +17 +20 1021.9 1001.4
12 18.10 Ю 1 15 км ясно +21.0 +9.3 47 +24 +27 комфорт 1019.7 999.6
15 18.10 штиль 0 14 км ясно +17.3 +10.4 64 +17 +17 1018.9 998.6
18 18.10 штиль 0 9000 м дымка ясно +12.4 +10.1 86 +12 +12 1019.1 998.4 +21.1
06 19.10 С 1 300 м туман ?/? +3.5 +3.5 100 +2 +2 1019.3 997.9 +3.3
09 19.10 штиль 0 1900 м дымка {туман} 8/8 720 м
[Sc]
+9.7 +9.4 98 +9 +10 1019.7 998.8
12 19.10 СВ 2 12 км {туман} ясно +16.4 +9.3 63 +17 +19 1019.0 998.6
15 19.10 СВ 2 8000 м дымка 4/0
[Ci fib]
+13.8 +9.0 73 +13 +13 1019.4 998.8
18 19.10 СВ 3 6000 м дымка 6/0
[Ci fib]
+11.0 +8.8 86 +9 +9 1021.3 1000.5 +16.6
06 20.10 штиль 0 9000 м дымка 8/8 800 м
[Sc]
+8.2 +6.3 88 +7 +7 1023.2 1002.1 +7.9
09 20.10 штиль 0 9000 м дымка 8/8 870 м
[Sc]
+10.6 +5.8 72 +10 +11 1023.4 1002.5
12 20.10 штиль 0 10 км 8/8 800 м
[Sc]
+12.3 +4.5 59 +12 +13 1022.4 1001.6
15 20.10 штиль 0 13 км 9/9 800 м
[Sc]
+11.1 +4.8 65 +11 +11 1022.0 1001.1
18 20.10 штиль 0 6000 м дымка 9/9 630 м
[Sc]
+8.3 +3.9 74 +8 +8 1022.9 1001.8 +13.3
06 21.10 штиль 0 6000 м дымка 8/8 800 м
[Sc]
+3.9 +2.6 91 +3 +3 1025.9 1004.4 +3.2
09 21.10 штиль 0 12 км 3/0
[Ci fib]
+10.0 +3.1 62 +10 +13 1026.4 1005.4
12 21.10 штиль 0 14 км 4/4 1000 м
[Cu med, cong]
+11.1 +0.5 48 +11 +13 1026.1 1005.1
15 21.10 штиль 0 10 км 8/8 800 м
[Sc]
+9.8 +1.4 56 +9 +9 1026.5 1005.4
18 21.10 штиль 0 8000 м дымка 3/0
[Ci fib]
+4.6 +1.3 79 +4 +4 1027.5 1006.0 +12.8

 

Местоположение метеостанции Столбцы (Минская область, Беларусь): широта 53.48 долгота 26.73 высота над уровнем моря 190 м.

В архиве по умолчанию представлена погода в Столбцах за последнюю неделю. Архивные данные за месяц целиком и за предыдущие месяцы, начиная с января 2011 года, Вы можете получить, выбрав интересующий диапазон дат из раскрывающегося списка и нажав кнопку "Ввод!".


*Определитесь, кто Вы:
робот инопланетянин человек

Внимание! Время в таблицах - всемирное. Для получения местного времени необходимо прибавить поправку, которая в Столбцах равна 3 ч.

Смотрите также архив погоды в соседних городах и на ближайших метеорологических станциях:

Погода в Новогрудке (Гродненская область, Беларусь) (60 км)
Погода в Барановичах (Брестская область, Беларусь) (64 км)
Погода в Воложине (Минская область, Беларусь) (69 км)
Погода в Слуцке (Минская область, Беларусь) (74 км)
Погода в Минске (город Минск, Беларусь) (78 км)
Погода в Ганцевичах (Брестская область, Беларусь) (83 км)
Погода в Марьиной Горке (Минская область, Беларусь) (93 км)
Погода в Лиде (Гродненская область, Беларусь) (104 км)
Погода в Вилейке (Минская область, Беларусь) (116 км)
Погода в Ошмянах (Гродненская область, Беларусь) (118 км)

Пояснения к столбцам:

Ветер - указаны скорость ветра в м/с - средняя за 10 мин, порывы в срок и между сроками (в фигурных скобках) и направление, откуда дует ветер: С - северный, СВ - северо-восточный, В - восточный, ЮВ - юго-восточный, Ю - южный, ЮЗ - юго-западный, З - западный, СЗ - северо-западный.
Видимость - горизонтальная дальность видимости в метрах или километрах. При видимости от 1 до 10 км при отсутствии осадков обычно наблюдается дымка, при ухудшении видимости до 1 км и менее - туман. В сухую погоду видимость может ухудшаться дымом, пылью или мглою.
Явления - указаны атмосферные явления, наблюдавшиеся в срок или в последний час перед сроком; фигурными скобками обозначены явления, наблюдавшиеся между сроками (за 1-3 часа до срока); квадратными скобками обозначены град или гололедные отложения с указанием их диаметра в мм.
Облачность - указаны через наклонную черту общая и нижняя облачность в баллах и высота нижней границы облаков в метрах; квадратными скобками обозначены формы облаков: Ci - перистые, Cs - перисто-слоистые, Cc - перисто-кучевые, Ac - высококучевые, As - высокослоистые, Sc - слоисто-кучевые, Ns - слоисто-дождевые, Cu - кучевые, Cb - кучево-дождевые. Подробнее классификацию облаков см. в Атласе облаков (PDF).
T - Температура воздуха - температура, измеренная на высоте 2 м над землей.
Td - Температура точки росы - температура, при понижении до которой содержащийся в воздухе водяной пар достигнет насыщения.
f - Относительная влажность воздуха - влажноcть воздуха, измеренная на высоте 2 м над землей.
Te - Эффективная температура - температура, которую ощущает одетый по сезону человек в тени. Характеристика душности погоды. При расчете учитывается влияние влажности воздуха и скорости ветра на теплоощущения человека.
Tes - Эффективная температура на солнце - температура, которую ощущает человек, с поправкой на солнечный нагрев. Характеристика знойности погоды. Зависит от высоты солнца над горизонтом, облачности и скорости ветра. Ночью, в пасмурную погоду, а также при ветре 12 м/с и более поправка равна нулю.
P - Атмосферное давление - приведенное к уровню моря атмосферное давление.
Po - Атмосферное давление - измеренное на уровне метеостанции атмосферное давление.
Tmin - Минимальная температура - минимум температуры воздуха на высоте 2 м над землей.
Tmax - Максимальная температура - максимум температуры воздуха на высоте 2 м над землей.
R - Количество осадков - Количество выпавших осадков за период времени, мм. При наведении курсора мыши на число - период времени, за который выпало указанное количество осадков.
R24 - Количество осадков - Количество выпавших осадков за 24 часа, мм.
S - Снежный покров - Высота снежного покрова, см. При наведении курсора мыши на число - состояние снежного покрова и степень покрытия местности в баллах.